LFBOLFLC

Guest
Details From LFBO - Toulouse Blagnac
To LFLC - Clermont-Ferrand_Auvergne
Flight Number -
Tags generated
Created
Modified
Stats Distance 151 nm / 280 km
Max Altitude 15,100 ft / 4,602 m
Waypoints 3
Social Downloads 0
Likes 0
Share VATSIM

Download

Looking for another format? Having issues loading an existing format? Contact us
Advertisement - Login to hide

Notes

Basic altitude profile: - Ascent Rate: 2500ft/min - Ascent Speed: 250kts - Cruise Altitude: 35000ft - Cruise Speed: 420kts - Descent Rate: 1500ft/min - Descent Speed: 250kts

Route

LFBO GAI53 LFLC

ID Type Via Altitude Latitude Longitude Leg Dist Tot Dist Heading (true) Name
O LFBO APT - 0 ft / 0 m 43.62903˚ 1.36397˚ - 0 nm - Toulouse Blagnac
GAI53 FIX - 15,100 ft / 4,602 m 44.74361˚ 2.39333˚ 80 nm 80 nm 33° / 34° -
O LFLC APT - 0 ft / 0 m 45.78671˚ 3.16997˚ 70 nm 151 nm 27° / 28° Clermont-Ferrand_Auvergne

Altitude Profile

Advertisement - Login to hide

LFBO

Details ICAO LFBO (TLS)
Name Toulouse Blagnac
Region France
Timezone Europe/Paris (UTC+2.0)
Stats Elevation 499 ft / 152 m (AMSL)
Location 43.629026° 1.363969°
Runways 2
Magnetic Variation 0.628° E

METAR

LFBO 242330Z AUTO 14005KT 9000 NSC 17/15 Q1016 NOSIG

Decode

TAF

TAF LFBO 241700Z 2418/2524 13005KT CAVOK PROB30 TEMPO 2503/2506 2000 BR BKN003 BECMG 2510/2512 14010G20KT

Decode

Departure Runways

ID Width Length Bearing (true) Bearing (mag) Surface Threshold Offset Overrun Length
14L 148 ft / 45 m 9,923 ft / 3,025 m 143.00° 142.37° Asphalt 0 ft / 0 m 0 ft / 0 m
14R 148 ft / 45 m 11,484 ft / 3,500 m 142.99° 142.36° Asphalt 0 ft / 0 m 295 ft / 90 m
32L 148 ft / 45 m 11,484 ft / 3,500 m 323.01° 322.38° Asphalt 0 ft / 0 m 197 ft / 60 m
32R 148 ft / 45 m 9,923 ft / 3,025 m 323.02° 322.39° Asphalt 0 ft / 0 m 0 ft / 0 m

LFLC

Details ICAO LFLC (CFE)
Name Clermont-Ferrand_Auvergne
Region France
Timezone Europe/Paris (UTC+2.0)
Stats Elevation 1,089 ft / 332 m (AMSL)
Location 45.786712° 3.169967°
Runways 1
Magnetic Variation 1.034° E

METAR

LFLC 242330Z AUTO 24004KT 180V310 CAVOK 16/13 Q1017 NOSIG

Decode

TAF

TAF LFLC 242000Z 2421/2521 18006KT 9999 FEW050 SCT060 BECMG 2422/2424 CAVOK BECMG 2510/2512 06005KT BECMG 2512/2514 FEW060TCU PROB30 TEMPO 2514/2518 VRB15G25KT 4000 TSRA SCT050CB BKN060TCU BECMG 2518/2520 CAVOK

Decode

Destination Runways

ID Width Length Bearing (true) Bearing (mag) Surface Threshold Offset Overrun Length
08 148 ft / 45 m 9,878 ft / 3,011 m 81.95° 80.92° Asphalt 0 ft / 0 m 0 ft / 0 m
26 148 ft / 45 m 9,878 ft / 3,011 m 261.98° 260.95° Asphalt 476 ft / 145 m 0 ft / 0 m

Approach Navaids

Runway Type Ident Frequency Range Bearing (true) Bearing (mag) Slope Elevation
26 Localiser CF 111.10 MHz 27 nm / 50 km 261.98° 260.95° - 1,089 ft / 332 m (AMSL)
26 Glidescope CF 111.10 MHz 27 nm / 50 km 261.98° 260.95° 3.00° 1,089 ft / 332 m (AMSL)
26 DME CF 111.10 MHz 27 nm / 50 km - - - 1,089 ft / 332 m (AMSL)

Popular Alternatives